Location: Nairn
(57.5833°N, 3.8667°W)
Time: 14:19:25
(UTC+00:00)

Vanguard 1 - Pass Details

Date: 29 November 2020
Orbit: 649 x 3834 km, 34.3° (Epoch: 14 January)

Event Time Altitude Azimuth Distance (km) Brightness Sun altitude
Rises 08:34:40 0° 242° (WSW) 4,339 13.2 -0.3°
Reaches altitude 10° 08:38:17 10° 224° (SW) 3,801 13.1 0.0°
Maximum altitude 08:44:53 19° 184° (S) 3,870 13.7 0.7°
Drops below altitude 10° 08:54:04 10° 147° (SSE) 5,530 16.0 1.5°
Sets 09:01:13 0° 134° (SE) 7,143 17.6 2.2°
